STARLINK-2549, 48314

Orbit data source: Space-Track

STARLINK-2549, 48314 is a payload satellite owned by SpaceX/Seattle (US) in LEO that was launched on Thu, 29 Apr 2021 UTC via an FALCON 9 launch vehicle from the Air Force Eastern Test Range (AFETR). Payload-class satellites include a variety of spacecraft equipped with specific instruments for various scientific and technological missions. These include communications satellites like Starlink; space stations such as the ISS; scientific satellites like the Hubble; Earth observation satellites from companies like Planet Labs, Umbra, and HawkEye 360; GPS; miniature CubeSats for education and research; and military/defense satellites.

Loading next visibility...
Identifier
48314, 2021-036AQ
Orbit
LEO
Country
Flag of USUS
Related business
Manufacturer
SpaceX/Seattle
Mission
Operational Commercial Communications
Bus & Motor
STARLINK, Unknown motor
Mass
260 kg wet, ~248 kg dry
Launch date (UTC)
2021-04-29 (5 years ago)
Launch vehicle
FALCON 9
Launch site
Air Force Eastern Test Range (AFETR)
Object type
Payload
Rocket body
Debris
Shape & HBR
Box + 1 Pan, 10.1 m
Radar Cross Section
13.562 m², Large (>1 m²)

Expand to show TLE details & history
Last TLE update: 22 hours ago

TLE from 22 hours ago
0 STARLINK-2549
1 48314U 21036AQ  26036.76581924  .00000933  00000-0  81503-4 0  9997
2 48314  53.0569 234.9293 0001673  96.5093 263.6087 15.06403830263352
Epoch: 2026-02-05T18:22Z
TLE epoch observation values (Epoch: 2026-02-05T18:22:46.782Z)
Latitude
0.00002°
Longitude
-176.67895°
Altitude
548.208 km
Speed
7.589 km/s
True Right ascension
15h 39m 43s
True Declination
0° 00' 00"
Sunlit
Object was in daylight at epoch
Visualization orbit readout
Latitude
Unknown
Longitude
Unknown
Altitude
Unknown
Speed
Unknown
Apparent Right ascension
Unknown
Apparent Declination
Unknown
Sunlit
N/A
Visualization observer readout
Local Sidereal Time
18:09:05
Azimuth
Unknown
Elevation
Unknown
Doppler factor
Unknown
Orbital elements
Apogee altitude
548.629 km
Perigee altitude
546.312 km
Semi-major axis
6,925.607 km
Eccentricity
0.00017
Inclination
53.0569°
RAAN
234.9293°
Arg. of periapsis
96.5093°
True anomaly
263.58965°
Mean anomaly
263.6087°
Eccentric anomaly
263.59917°
Mean motion
3.76579 °/min
Orbital period
95.6 mins
BSTAR
0.000081503
Loading maneuver chart data...
Computing Atmospheric mass density...
Loading historical data...
Loading historical data...
Loading historical data...
Loading historical data...
Loading historical data...
Loading historical data...
Loading historical data...

Documentation

Showing up to 5 results
|